Powrót do katalogu

STARLINK-34087

AktywnyŁącznośćVLEO
NORAD 64023·PAYLOAD·🇺🇸 United States

Wystrzelony May 16, 2025 z Vandenberg Space Force Base

Loading…

Następne Przeloty (najbliższe 24 godziny)

TLE

ŚwieżeSource: CelesTrak SupGP

Epoka: Sep 14, 2026, 14:10 UTC

1 64023C 25102B   26257.59076389 -.00017803  00000+0 -61948-3 0  2572
2 64023  70.0014 356.5268 0003399 274.9683 274.7125 15.29577946    11

Śledź STARLINK-34087 w czasie rzeczywistym z AllMySat

Download on the App Store